When you browse on this site, cookies collect data to enhance your experience and personalize the content and advertising you see.
Visit our Privacy Policy to learn more. By continuing to use the site, you agree to this use of cookies and data.
  • In Hungary
  • List of Countries
  • For 7 days
  • Water Temperature
  • Satellite Maps
  • Weather Map
  • News
  • Weather Widgets
  • user-avatar
    Login

    Hourly Weather Ugiertowo

    Today, 18 January, Friday

    Time Temperature Precipitation Wind Pressure Humidity
    00:00 -2°C° 0 mm 4 mps 737 mmHg 91%
    01:00 -2°C° 0 mm 4 mps 737 mmHg 92%
    02:00 -2°C° 0.5 mm 4 mps 737 mmHg 93%
    03:00 0°C° 0.5 mm 3 mps 736 mmHg 95%
    04:00 +1°C° 0.5 mm 2 mps 736 mmHg 96%
    05:00 0°C° 1 mm 3 mps 737 mmHg 95%
    06:00 -1°C° 1 mm 4 mps 737 mmHg 95%
    07:00 -1°C° 1 mm 5 mps 737 mmHg 94%
    08:00 -2°C° 0.6 mm 5 mps 738 mmHg 91%
    09:00 -4°C° 0.6 mm 5 mps 739 mmHg 88%
    10:00 -5°C° 0.6 mm 5 mps 740 mmHg 84%
    11:00 -4°C° 0.1 mm 5 mps 742 mmHg 83%
    12:00 -4°C° 0.1 mm 5 mps 743 mmHg 81%
    13:00 -4°C° 0.1 mm 5 mps 744 mmHg 80%
    14:00 -4°C° 0 mm 5 mps 744 mmHg 81%
    15:00 -4°C° 0 mm 4 mps 745 mmHg 83%
    16:00 -4°C° 0 mm 4 mps 746 mmHg 84%
    17:00 -4°C° 0 mm 4 mps 746 mmHg 85%
    18:00 -5°C° 0 mm 4 mps 747 mmHg 86%
    19:00 -5°C° 0 mm 4 mps 747 mmHg 87%
    20:00 -5°C° 0 mm 4 mps 748 mmHg 87%
    21:00 -5°C° 0 mm 4 mps 748 mmHg 86%
    22:00 -7°C° 0 mm 4 mps 749 mmHg 86%
    23:00 -7°C° 0 mm 4 mps 749 mmHg 85%

    Tomorrow, 19 January, Saturday

    Time Temperature Precipitation Wind Pressure Humidity
    00:00 -7°C° 0 mm 4 mps 749 mmHg 84%
    01:00 -7°C° 0 mm 4 mps 750 mmHg 83%
    02:00 -7°C° 0 mm 4 mps 750 mmHg 85%
    03:00 -7°C° 0 mm 4 mps 750 mmHg 87%
    04:00 -7°C° 0 mm 4 mps 750 mmHg 89%
    05:00 -7°C° 0 mm 4 mps 750 mmHg 90%
    06:00 -7°C° 0 mm 4 mps 751 mmHg 91%
    07:00 -7°C° 0 mm 4 mps 751 mmHg 92%
    08:00 -7°C° 0 mm 4 mps 751 mmHg 91%
    09:00 -5°C° 0 mm 4 mps 751 mmHg 90%
    10:00 -4°C° 0 mm 4 mps 752 mmHg 89%
    11:00 -4°C° 0 mm 4 mps 752 mmHg 87%
    12:00 -3°C° 0 mm 4 mps 751 mmHg 85%
    13:00 -3°C° 0 mm 4 mps 751 mmHg 83%
    14:00 -3°C° 0 mm 4 mps 751 mmHg 85%
    15:00 -4°C° 0 mm 4 mps 751 mmHg 86%
    16:00 -5°C° 0 mm 4 mps 751 mmHg 87%
    17:00 -5°C° 0 mm 4 mps 751 mmHg 88%
    18:00 -5°C° 0 mm 4 mps 751 mmHg 88%
    19:00 -5°C° 0 mm 4 mps 751 mmHg 88%
    20:00 -5°C° 0 mm 4 mps 751 mmHg 89%
    21:00 -7°C° 0 mm 4 mps 752 mmHg 89%
    22:00 -7°C° 0 mm 4 mps 752 mmHg 90%
    23:00 -6°C° 0 mm 3 mps 752 mmHg 91%

    Day after tomorrow, 20 January, Sunday

    Time Temperature Precipitation Wind Pressure Humidity
    00:00 -6°C° 0 mm 3 mps 751 mmHg 91%
    01:00 -6°C° 0 mm 3 mps 751 mmHg 92%
    02:00 -6°C° 0 mm 3 mps 751 mmHg 92%
    03:00 -7°C° 0 mm 3 mps 751 mmHg 92%
    04:00 -7°C° 0 mm 3 mps 750 mmHg 93%
    05:00 -7°C° 0 mm 3 mps 750 mmHg 92%
    06:00 -7°C° 0 mm 3 mps 750 mmHg 92%
    07:00 -7°C° 0 mm 3 mps 750 mmHg 92%
    08:00 -7°C° 0 mm 3 mps 750 mmHg 91%
    09:00 -6°C° 0 mm 3 mps 750 mmHg 89%
    10:00 -5°C° 0 mm 3 mps 750 mmHg 88%
    11:00 -5°C° 0 mm 3 mps 750 mmHg 87%
    12:00 -4°C° 0 mm 4 mps 750 mmHg 87%
    13:00 -4°C° 0 mm 4 mps 750 mmHg 86%
    14:00 -4°C° 0 mm 4 mps 750 mmHg 88%
    15:00 -4°C° 0 mm 4 mps 749 mmHg 90%
    16:00 -5°C° 0 mm 4 mps 749 mmHg 91%
    17:00 -4°C° 0.5 mm 4 mps 750 mmHg 92%
    18:00 -4°C° 0.5 mm 4 mps 750 mmHg 93%
    19:00 -3°C° 0.5 mm 4 mps 750 mmHg 94%
    20:00 -4°C° 0 mm 3 mps 750 mmHg 92%
    21:00 -4°C° 0 mm 2 mps 751 mmHg 89%
    22:00 -3°C° 0 mm 1 mps 751 mmHg 87%
    23:00 -6°C° 0 mm 2 mps 751 mmHg 87%

    21 January, Monday

    Time Temperature Precipitation Wind Pressure Humidity
    00:00 -6°C° 0 mm 2 mps 752 mmHg 88%
    01:00 -7°C° 0 mm 2 mps 752 mmHg 88%
    02:00 -7°C° 0 mm 2 mps 753 mmHg 88%
    03:00 -7°C° 0 mm 2 mps 753 mmHg 87%
    04:00 -7°C° 0 mm 2 mps 753 mmHg 86%
    05:00 -7°C° 0 mm 2 mps 753 mmHg 85%
    06:00 -7°C° 0 mm 2 mps 754 mmHg 84%
    07:00 -7°C° 0 mm 2 mps 754 mmHg 83%
    08:00 -7°C° 0 mm 2 mps 754 mmHg 83%
    09:00 -7°C° 0 mm 3 mps 755 mmHg 82%
    10:00 -6°C° 0 mm 3 mps 755 mmHg 82%
    11:00 -5°C° 0 mm 3 mps 755 mmHg 81%
    12:00 -5°C° 0 mm 3 mps 755 mmHg 81%
    13:00 -4°C° 0 mm 3 mps 755 mmHg 81%
    14:00 -5°C° 0 mm 3 mps 755 mmHg 82%
    15:00 -6°C° 0 mm 3 mps 755 mmHg 84%
    16:00 -7°C° 0 mm 3 mps 754 mmHg 86%
    17:00 -7°C° 0 mm 3 mps 754 mmHg 87%
    18:00 -7°C° 0 mm 3 mps 754 mmHg 87%
    19:00 -8°C° 0 mm 4 mps 754 mmHg 88%
    20:00 -7°C° 0.1 mm 4 mps 754 mmHg 90%
    21:00 -5°C° 0.1 mm 4 mps 753 mmHg 91%
    22:00 -4°C° 0.1 mm 4 mps 753 mmHg 93%
    23:00 -5°C° 0 mm 4 mps 753 mmHg 92%

    22 January, Tuesday

    Time Temperature Precipitation Wind Pressure Humidity
    00:00 -5°C° 0 mm 4 mps 752 mmHg 91%
    01:00 -7°C° 0 mm 5 mps 752 mmHg 90%
    02:00 -7°C° 0 mm 5 mps 751 mmHg 89%
    03:00 -7°C° 0 mm 5 mps 751 mmHg 88%
    04:00 -7°C° 0 mm 5 mps 750 mmHg 87%
    05:00 -7°C° 0 mm 4 mps 750 mmHg 87%
    06:00 -7°C° 0 mm 4 mps 750 mmHg 87%
    07:00 -7°C° 0 mm 4 mps 749 mmHg 87%
    08:00 -7°C° 0 mm 4 mps 749 mmHg 86%
    09:00 -7°C° 0 mm 4 mps 749 mmHg 85%
    10:00 -5°C° 0 mm 4 mps 749 mmHg 85%
    11:00 -5°C° 0 mm 4 mps 749 mmHg 85%
    12:00 -4°C° 0 mm 4 mps 748 mmHg 84%
    13:00 -3°C° 0 mm 4 mps 748 mmHg 84%
    14:00 -4°C° 0 mm 3 mps 748 mmHg 86%
    15:00 -5°C° 0 mm 3 mps 747 mmHg 88%
    16:00 -6°C° 0 mm 3 mps 747 mmHg 90%
    17:00 -7°C° 0 mm 3 mps 747 mmHg 90%
    18:00 -7°C° 0 mm 3 mps 746 mmHg 90%
    19:00 -7°C° 0 mm 3 mps 746 mmHg 91%
    20:00 -8°C° 0 mm 3 mps 746 mmHg 90%
    21:00 -8°C° 0 mm 3 mps 745 mmHg 89%
    22:00 -8°C° 0 mm 3 mps 745 mmHg 88%
    23:00 -9°C° 0 mm 3 mps 745 mmHg 87%

    23 January, Wednesday

    Time Temperature Precipitation Wind Pressure Humidity
    00:00 -9°C° 0 mm 3 mps 745 mmHg 87%
    01:00 -9°C° 0 mm 3 mps 744 mmHg 86%
    02:00 -10°C° 0 mm 3 mps 744 mmHg 86%
    03:00 -10°C° 0 mm 3 mps 744 mmHg 86%
    04:00 -11°C° 0 mm 4 mps 743 mmHg 86%
    05:00 -11°C° 0 mm 4 mps 743 mmHg 87%
    06:00 -11°C° 0 mm 4 mps 743 mmHg 87%
    07:00 -11°C° 0 mm 4 mps 743 mmHg 88%
    08:00 -11°C° 0 mm 4 mps 743 mmHg 88%
    09:00 -10°C° 0 mm 4 mps 743 mmHg 87%
    10:00 -10°C° 0 mm 5 mps 743 mmHg 87%
    11:00 -10°C° 0 mm 5 mps 742 mmHg 88%
    12:00 -10°C° 0 mm 5 mps 742 mmHg 88%
    13:00 -8°C° 0 mm 5 mps 742 mmHg 89%
    14:00 -8°C° 0 mm 5 mps 742 mmHg 89%
    15:00 -8°C° 0 mm 5 mps 741 mmHg 90%
    16:00 -8°C° 0 mm 5 mps 741 mmHg 91%
    17:00 -8°C° 0.1 mm 5 mps 741 mmHg 91%
    18:00 -8°C° 0.1 mm 5 mps 742 mmHg 91%
    19:00 -7°C° 0.1 mm 5 mps 742 mmHg 91%
    20:00 -7°C° 0.1 mm 5 mps 742 mmHg 91%
    21:00 -7°C° 0.1 mm 5 mps 742 mmHg 91%
    22:00 -7°C° 0.1 mm 5 mps 742 mmHg 91%
    23:00 -7°C° 0.1 mm 5 mps 742 mmHg 92%
    Show more